Powrót do katalogu

COSMOS 841

AktywnyMilitariaLEO
NORAD 9022·PAYLOAD·🇷🇺 Russia

Wystrzelony Jul 15, 1976 z Plesetsk Cosmodrome

Loading…

Następne Przeloty (najbliższe 24 godziny)

TLE

ŚwieżeSource: Space-Track

Epoka: Sep 14, 2026, 15:24 UTC

1 09022U 76069A   26257.64224875  .00000100  00000-0  42820-4 0  9992
2 09022  74.0430 136.6484 0013281 201.9807 158.0778 14.36851299625228

Śledź COSMOS 841 w czasie rzeczywistym z AllMySat

Download on the App Store